Погода в Ереване

Погода в Ереване : погода сейчас, прогноз погоды и архив. Всё, что Вы хотите узнать о погоде в Ереване!

Поиск расширенной информации на нашем сайте:

Другие новости

Новости СМИ2

Главная страница сайта

Новости сайта

03.07.2017

Напоминаем, что на нашем специализированном сайте Метеоцентр.Азия вы можете получить высокодетализированные автоматические прогнозы погоды по пунктам России, СНГ и мира в авиационном формате (включающие направление и скорость ветра, видимость, явления погоды, количество и форму облачности, нижнюю и верхнюю границу облачности).

Рекомендуем: Порекомендовали элькарнитин цена и я похудела на 10 кг!

Погода в Ереване - сегодня

Время (UTC), дата Ветер
(°,м/с) 
Видим.   Явления Облачность Т
(°С)
Тd
(°С)
f(%) Тe
(°С)
Pmin
(гПа)
dP
(гПа)
Po
(мм)
O2
(г/м3)
Тmin Tmax R s Состояние
почвы
18 19.08.17 050 (СВ) 20000 м    ясно 
+28.2 +14 42 +38  1005.6  0.3  686  248    +35.9       
21 19.08.17 040 (СВ) 20000 м    ясно 
+26.4 +13.3 44 +34  1007.8  1.4  687  250           
00 20.08.17 040 (СВ) 20000 м    ясно 
+25.4 +14.1 50 +35  1009.5  687  250           
03 20.08.17 250 (З) 20000 м    ясно 
+20.4 +14.6 69 +31  1011.5  0.7  688  255           
06 20.08.17 170 (Ю) 20000 м    ясно 
+26.3 +15.1 50 +38  1010.2  0.5  688  250  +20.3         
09 20.08.17 110 (В) 20000 м    ясно 
+31.4 +12.3 31 +38  1006.8  -1.7  687  246           
12 20.08.17 230 (ЮЗ) 20000 м    1/1 1000 м 
[Cu med, cong]
+34.8 +8.8 20 +36  1003.5  -2.2  685  243           
15 20.08.17 010 (С) 20000 м    3/0 средняя 
[Ac cuf]
+32.8 +10.5 26 +37  1002.6  -1.3  684  244           
18 20.08.17 040 (СВ) 20000 м    ясно 
+28.2 +11.1 35 +33  1004.6  0.6  685  248    +35.6       
21 20.08.17 050 (СВ) 20000 м    ясно 
+26.4 +8.8 33 +28  1005.8  0.4  685  250           
00 21.08.17 080 (В) 20000 м    ясно 
+25.3 +10.4 39 +29  1006.5  0.4  686  251           
03 21.08.17 тихо ()   20000 м    ясно 
+18.2 +14.4 78 +28  1010.1  1.3  686  256           
06 21.08.17 200 (Ю) 20000 м    ясно 
+26.4 +12 41 +32  1007.5  0.1  687  250  +17.5         
09 21.08.17 200 (Ю) 20000 м    1/1 1000 м 
[Cu hum]
+32.2 +14.4 34 +42  1004.2  -1.4  686  244           
12 21.08.17 220 (ЮЗ) 20000 м    3/3 1000 м 
[Cu med, cong]
+35 +13.4 27 +43  1000.4  -2.6  684  241           
15 21.08.17 180 (Ю) 20000 м    1/0 средняя 
[Ac cuf]
+34 +13.5 29 +43  999.5  -1.1  683  242           
18 21.08.17 040 (СВ) 20000 м    ясно 
+29.2 +12.3 35 +36  1001.8  0.6  683  246    +35.5       
21 21.08.17 040 (СВ) 20000 м    ясно 
+27.2 +12.4 40 +34  1001.7  0.4  684  248           
00 22.08.17 050 (СВ) 20000 м    ясно 
+24.5 +13.4 50 +33  1004.4  0.8  684  250           
03 22.08.17 180 (Ю) 20000 м    ясно 
+18.4 +14.2 77 +29  1007.8  1.3  685  256           
06 22.08.17 180 (Ю) 20000 м    ясно 
+26.7 +13.9 45 +36  1005.6  0.5  685  249  +17.8         
09 22.08.17 240 (ЮЗ) 20000 м    1/1 1000 м 
[Cu hum]
+33.3 +13.8 31 +42  1001.4  -2  684  243           
12 22.08.17 130 (ЮВ) 20000 м    1/1 1000 м 
[Cu hum]
+37.6 +8.8 17 +39  997.5  -2.5  682  240           
15 22.08.17 тихо ()   20000 м    ясно 
+35.8 +11.8 24 +42  996.4  -1.5  681  240           
18 22.08.17 030 (СВ) 20000 м    ясно 
+31 +10.7 29 +35  999  682  245    +38       
Время (UTC), дата Ветер
(°,м/с) 
Видим.   Явления Облачность Т
(°С)
Тd
(°С)
f(%) Тe
(°С)
Pmin
(гПа)
dP
(гПа)
Po
(мм)
O2
(г/м3)
Тmin Tmax R s Состояние
почвы

Для получения пояснительной информации подведите курсор к названию столбца.

ПОГОДА в Ереване - архив

Всё, что Вы хотите узнать о погоде в Ереване - удобно и подробно!

Выберите нужную дату (начиная с 1 января 2015* года) и нажмите кнопку "Найти".
Будут отображены архивные сводки погоды по пункту Ереван, начиная с указанной даты.


Отображать данные в формате CSV (для использования в таблицах Excel)


Внимание! Наш архив погоды предназначен исключительно для личного некоммерческого использования в познавательных целях. Если Вам необходимы официальные справки о состоянии погоды (для производственных, юридических, коммерческих и т.п. целей), обращайтесь в органы Росгидромета.

*Примечание: данная дата относится к архиву по метеостанциям СССР (Россия, СНГ, Балтия).
Архив по метеостанциям Зарубежной Европы и Азии (кроме Китая) хранится 10 дней, по другим регионам земного шара (Китай, Африка, Америка, Австралия, Океания) - 1 день.

Ереван - район местоположения метеостанции


Название, широта, долгота, высота метеостанции:
Ереван (Звартноц) 40.1°ш. 44.4°д. 865 м над ур. моря [Армения]

Дополнительная информация

В oтличие oт бoльшинства пoгoдных сайтoв мы публикуем пoдрoбную метеoинфoрмацию в детальнoм прoфессиoнальнoм фoрмате.

Характеристики температуры и влажнoсти вoздуха измеряются на высoте 2 м в тени вдали oт зданий и деревьев.
Скoрoсть ветра измеряется на высoте 10 м (на урoвне рoста челoвека скoрoсть ветра ниже в 1.5-2 раза). Если метеoстанция нахoдится в гoрoде или в лесу, тo скoрoсть ветра занижена на 2-4 м/с пo сравнению с oткрытым местoм. Скoрoсть ветра над акватoриями крупных рек и oзёр, а также на вершинах хoлмoв на 2-5 м/с выше, чем в oбычных услoвиях.
Атмoсфернoе давление в разных тoчках местнoсти мoжет значительнo oтличаться oт давления на метеoстанции, в зависимoсти oт услoвий рельефа (при пoдъёме на 10 м давление пoнижается примернo на 1 мм рт.ст.).